BEIDOU-3 M1 (C19)

Last updated on Sat Apr 13 2024 01:03:11 GMT+0100 (British Summer Time)

1 43001U 17069A 24102.83026817 -.00000006 00000+0 00000+0 0 9990 2 43001 56.0132 89.4664 0012583 301.3746 58.4871 1.86231364 43775
UTC large
Height (km)
Speed (km/s)
/
Latitude / Longitude
Inclination (degrees)
Orbital Period (minutes)
Azimuth
Elevation
Range (km)
Doppler Factor

Next 0 passes for location: London (51.5072 / 0.1276)

Sorry there are no passes over London.